Flag for Germany

Past Weather in Warstein, North Rhine-Westphalia, Germany — Yesterday and Last 2 Weeks

Now
82 °F

Passing clouds.


Feels Like: 81 °F
Forecast: 88 / 65 °F
Wind: 6 mph from Southeast

Location: Paderborn / Lippstadt

Current Time: Aug 7, 2020 at 11:56:53 am

Latest Report: Aug 7, 2020 at 10:50 am


Visibility: N/A

Pressure: 30.18 "Hg

Humidity: 26%

Dew Point: 45 °F

Location of WarsteinLocation

Past Weather in Warstein — Graph

°F

Warstein Temperature Yesterday

Maximum temperature yesterday: 86 °F (at 3:20 pm)
Minimum temperature yesterday: 66 °F (at 6:50 am)
Average temperature yesterday: 79 °F

High & Low Weather Summary for the Past Weeks

 TemperatureHumidityPressure
High88 °F (Jul 31, 5:50 pm)100% (Aug 2, 5:20 am)30.18 "Hg (Aug 2, 5:20 am)
Low48 °F (Jul 30, 5:20 am)20% (Aug 6, 5:20 pm)29.74 "Hg (Jul 26, 5:20 am)
Average69 °F55%29.99 "Hg
* Reported Jul 23 10:20 am — Aug 7 10:50 am, Warstein. Weather by CustomWeather, © 2020

Note: Actual official high and low records may vary slightly from our data, if they occured in-between our weather recording intervals... More about our weather records

Warstein Weather History for the Previous 24 Hours

Scroll right to see more
 ConditionsComfort  
Time TempWeatherWind HumidityBarometerVisibility
10:50 am
Fri, Aug 7
82 °FPassing clouds.6 mph26%30.18 "HgN/A
10:20 am82 °FPassing clouds.6 mph28%30.18 "HgN/A
9:20 am79 °FSunny.7 mph32%30.18 "Hg10 mi
8:50 am75 °FSunny.5 mph36%30.18 "Hg10 mi
8:20 am73 °FSunny.6 mph41%30.18 "Hg10 mi
7:50 am70 °FSunny.6 mph43%30.15 "Hg10 mi
7:20 am68 °FSunny.8 mph46%30.15 "Hg10 mi
6:50 am66 °FSunny.8 mph49%30.15 "Hg10 mi
6:20 am66 °FSunny.8 mph49%30.15 "Hg10 mi
4:50 am66 °FClear.7 mph49%30.15 "Hg10 mi
4:20 am68 °FClear.6 mph46%30.15 "Hg10 mi
9:50 pm
Thu, Aug 6
75 °FClear.5 mph39%30.12 "Hg10 mi
9:20 pm77 °FClear.6 mph34%30.12 "Hg10 mi
8:50 pm77 °FSunny.5 mph34%30.12 "Hg10 mi
8:20 pm81 °FSunny.7 mph28%30.12 "Hg10 mi
7:50 pm84 °FSunny.8 mph23%30.12 "Hg10 mi
7:20 pm84 °FSunny.8 mph23%30.12 "Hg10 mi
6:50 pm84 °FPassing clouds.7 mph22%30.12 "HgN/A
6:20 pm86 °FPassing clouds.9 mph20%30.12 "HgN/A
5:50 pm86 °FPassing clouds.8 mph20%30.12 "HgN/A
5:20 pm86 °FPassing clouds.7 mph20%30.12 "HgN/A
4:50 pm86 °FSunny.5 mph22%30.12 "Hg10 mi
4:20 pm86 °FPassing clouds.7 mph24%30.12 "HgN/A
3:50 pm84 °FPassing clouds.7 mph23%30.12 "HgN/A
3:20 pm86 °FSunny.6 mph22%30.12 "Hg10 mi
2:20 pm84 °FPassing clouds.7 mph22%30.12 "HgN/A
1:50 pm82 °FSunny.5 mph25%30.15 "Hg10 mi
1:20 pm82 °FSunny.6 mph25%30.15 "Hg10 mi
12:50 pm82 °FPassing clouds.8 mph25%30.15 "HgN/A
12:20 pm82 °FSunny.6 mph26%30.15 "Hg10 mi
11:50 am82 °FPassing clouds.7 mph28%30.15 "HgN/A
11:20 am79 °FPassing clouds.8 mph30%30.15 "HgN/A
Weather by CustomWeather, © 2020

See weather overview